Regional Weather Roundup
Issued by NWS

Home | Current Version | Previous Version | Graphics & Text | Print | Product List | Glossary On
Versions: 1 2 3 4 5 6 7 8 9 10 11 12 13 14 15 16 17 18 19 20 21 22 23 24 25 26 27 28 29 30 31 32 33 34 35 36 37 38 39 40 41 42 43 44 45 46 47 48 49 50
754
ASUS44 KJAN 251510
RWRMS

MISSISSIPPI HOURLY WEATHER ROUNDUP
NATIONAL WEATHER SERVICE JACKSON MS
900 AM CST TUE NOV 25 2014

NOTE: "FAIR: INDICATES FEW OR NO CLOUDS BELOW 12,000 FEET WITH NO
SIGNIFICANT WEATHER AND/OR OBSTRUCTIONS TO VISIBILITY.

MSZ001>002-007>008-010>013-018>021-025>028-034>036-251600-
NORTHWEST MISSISSIPPI

CITY           SKY/WX    TMP DP  RH WIND       PRES   REMARKS
CLARKSDALE     FAIR      43  30  61 CALM      30.27R
CLEVELAND      FAIR      43  34  70 N3        30.26R
GREENWOOD      PTSUNNY   42  36  79 CALM      30.25R
GREENVILLE     CLOUDY    45  33  63 N8        30.26R HAZE
GRENADA        FAIR      37  36  93 CALM      30.26R
OLIVE BRANCH   PTSUNNY   39  30  70 NW9       30.23R WCI  33
OXFORD         FAIR      41  30  65 NW6       30.25R
TUNICA         PTSUNNY   41  32  70 N5        30.26S
$$

MSZ003>006-009-014>017-022>024-029>033-037>039-251600-
NORTHEAST MISSISSIPPI

CITY           SKY/WX    TMP DP  RH WIND       PRES   REMARKS
COLUMBUS AFB   PTSUNNY   42  35  78 NW6       30.22R
CORINTH        FAIR      41  34  75 NW5       30.22R
GOLDN TRIANGLE SUNNY     41  36  81 NW5       30.21R
STARKVILLE     FAIR      41  34  75 CALM      30.22R
TUPELO         MOSUNNY   43  30  60 N8        30.22R
$$

MSZ040-058-251600-
CENTRAL MISSISSIPPI

CITY           SKY/WX    TMP DP  RH WIND       PRES   REMARKS
JACKSON INTL   CLOUDY    49  35  58 N14       30.22R
JACKSON HAWKNS CLOUDY    48  31  51 N7        30.23R
MERIDIAN KEY   PTSUNNY   51  35  54 N8        30.20R
MERIDIAN NAS   PTSUNNY   51  33  50 N12       30.20R
RAYMOND        FAIR      46  41  81 NE3       30.24R
VICKSBURG      PTSUNNY   45  36  70 N7        30.25S
$$

MSZ059>079-251600-
SOUTH MISSISSIPPI

CITY           SKY/WX    TMP DP  RH WIND       PRES   REMARKS
BROOKHAVEN     FAIR      50  34  53 N7        30.21S
COLUMBIA       FAIR      48  37  66 MISG        N/A
HATTIESBURG    PTSUNNY   50  38  63 NW6       30.19R
MCCOMB         SUNNY     52  27  38 N10       30.20R
NATCHEZ        CLOUDY    45  36  70 N7        30.24R
PINE BELT      PTSUNNY   52  34  50 N13       30.20R
$$

MSZ080>082-251600-
COASTAL MISSISSIPPI

CITY           SKY/WX    TMP DP  RH WIND       PRES   REMARKS
BAY ST LOUIS   SUNNY     52  34  50 N7        30.17R
BILOXI         PTSUNNY   56  37  48 NE10      30.15R
PASCAGOULA     PTSUNNY   56  36  47 N9        30.14R
GULFPORT       PTSUNNY   53  36  52 N10       30.15R
$$



USA.gov is the U.S. government's official web portal to all federal, state and local government web resources and services.